This is the latest recevied weather packets stored in our database for station/object K1KOF. If no packets are shown the sender has not sent any weather packets the latest 10 day(s).
| Time | Temp. | Humidity | Pressure | Rain* | Wind** | Luminosity | Snow |
|---|---|---|---|---|---|---|---|
| 1777583594 | 24.44° C | 68% | 1019.2 hPa | 0 mm | - | 295 W/m² | - |
| 1777583293 | 24.44° C | 69% | 1019.3 hPa | 0 mm | - | 301 W/m² | - |
| 1777582988 | 24.44° C | 69% | 1019.2 hPa | 0 mm | - | 303 W/m² | - |
| 1777582686 | 24.44° C | 70% | 1019.4 hPa | 0 mm | - | 286 W/m² | - |
| 1777582381 | 24.44° C | 69% | 1019.5 hPa | 0 mm | - | 301 W/m² | - |
| 1777582079 | 24.44° C | 69% | 1019.5 hPa | 0 mm | - | 297 W/m² | - |
| 1777581774 | 24.44° C | 69% | 1019.7 hPa | 0 mm | - | 361 W/m² | - |
| 1777581473 | 23.89° C | 70% | 1019.5 hPa | 0 mm | - | 331 W/m² | - |
| 1777581167 | 25° C | 67% | 1019.6 hPa | 0 mm | - | 294 W/m² | - |
| 1777580862 | 25° C | 67% | 1019.6 hPa | 0 mm | - | 414 W/m² | - |
| 1777580557 | 24.44° C | 67% | 1019.6 hPa | 0 mm | - | 466 W/m² | - |
| 1777580253 | 24.44° C | 67% | 1019.8 hPa | 0 mm | - | 531 W/m² | - |
| 1777579951 | 25° C | 67% | 1019.9 hPa | 0 mm | - | 497 W/m² | - |
| 1777579646 | 24.44° C | 67% | 1019.6 hPa | 0 mm | - | 575 W/m² | - |
| 1777579344 | 25° C | 66% | 1019.5 hPa | 0 mm | - | 471 W/m² | - |
| 1777579040 | 25° C | 69% | 1019.4 hPa | 0 mm | - | 637 W/m² | - |
| 1777578735 | 25° C | 68% | 1019.8 hPa | 0 mm | - | 675 W/m² | - |
| 1777578429 | 24.44° C | 66% | 1019.6 hPa | 0 mm | - | 654 W/m² | - |
| 1777578125 | 25° C | 67% | 1019.7 hPa | 0 mm | - | 580 W/m² | - |
| 1777577821 | 25° C | 68% | 1019.5 hPa | 0 mm | - | 558 W/m² | - |
| 1777577517 | 25.56° C | 69% | 1019.9 hPa | 0 mm | - | 656 W/m² | - |
| 1777577214 | 25° C | 70% | 1019.9 hPa | 0 mm | - | 586 W/m² | - |
| 1777576910 | 23.89° C | 71% | 1020.1 hPa | 0 mm | - | 542 W/m² | - |
| 1777576604 | 24.44° C | 73% | 1020.1 hPa | 0 mm | - | 498 W/m² | - |
| 1777576300 | 23.89° C | 72% | 1020 hPa | 0 mm | - | 328 W/m² | - |
* Rain latest hour (hover to see other rain measurements)
** Current wind speed in m/s (hover to see current wind gust speed)